SCP
0 0 0 0 0 0 0 0 0 0 0 0 0 0 0 0 0 0 0 0 0 0 0 0 0 0 0 0 0 0 0 0 0 0 0 0 0 0 0 -0 0 0 0 0 0 0 0 0 0 0 0 0 0 0
0 0 0 0 0 0 0 0 0 0 0 0 0 0 0 0 0 0 0 0 0 0 0 0 0 0 0 0 0 0 0 0 0 0 0 0 0 0 0 0 0 0 0 0 0 0 0 0 0 0 0 0 0 0
0 0 0 0 0 0 0 0 0 0 0 0 0 0 0 0 0 0 0 0 0 0 0 0 0 0 0 0 0 0 0 0 0 0 0 0 0 0 0 0 0 0 0 0 0 0 0 0 0 0 0 0 0 0
0 0 0 0 0 0 0 0 0 0 0 0 0 0 0 0 0 0 0 0 0 0 0 0 0 0 0 0 0 0 0 0 0 0 0 0 0 0 0 0 0 0 0 0 0 0 0 0 0 0 0 0 0 0
0 0 0 0 0 0 0 0 0 0 0 0 0 0 0 0 0 0 0 0 0 0 0 0 0 0 0 0 0 0 0 0 0 0 0 0 0 0 0 0 0 0 0 0 0 0 0 0 0 0 0 0 0 0
0 0 0 0 0 0 0 0 0 0 0 0 0 0 0 0 0 0 0 0 0 0 0 0 0 0 0 0 0 0 0 0 0 0 0 0 0 0 0 0 0 0 0 0 0 0 0 0 0 0 0 0 0 0
0 0 0 0 0 0 0 0 0 0 0 0 0 0 0 0 0 0 0 0 0 0 0 0 0 0 0 0 0 0 0 0 0 0 0 0 0 0 0 0 0 0 0 0 0 0 0 0 0 0 0 0 0 0
0 0 0 0 0 0 0 0 0 0 0 0 0 0 0 0 0 0 0 -0 0 0 0 0 0 0 0 0 0 0 0 0 0 0 0 0 0 0 0 0 0 0 0 0 0 0 0 0 0 0 0 0 0 0
0 0 0 0 0 0 0 0 0 0 0 0 0 0 0 0 0 0 0 0 0 0 0 0 0 0 0 0 0 0 0 0 0 0 0 0 0 0 0 0 0 0 0 0 0 0 0 0 0 0 0 0 0 0
0 0 0 0 0 0 0 0 0 0 0 0 0 0 0 0 0 0 0 0 0 0 0 0 0 0 0 0 0 0 0 0 0 0 0 0 0 0 0 0 0 0 0 0 0 0 0 0 0 0 0 0 0 0
0 0 0 0 0 0 0 0 0 0 0 0 0 0 0 0 0 0 0 0 0 0 0 0 0 0 0 0 0 0 0 0 0 0 0 0 0 0 0 0 0 0 0 0 0 0 0 0 0 0 0 0 0 0
0 0 0 0 0 0 0 0 0 0 0 0 0 0 0 0 0 0 0 0 0 0 0 0 0 0 0 0 0 0 0 0 0 0 0 0 0 0 0 0 0 0 0 0 0 0 0 0 0 0 0 0 0 0
0 0 0 0 -0 0 0 0 0 0 0 0 0 0 0 0 0 0 0 0 0 0 0 0 0 0 0 0 0 0 0 0 0 0 0 0 0 0 0 0 0 0 0 0 0 0 0 0 0 0 0 0 0 0
0 0 -0 0 0 -0 -0 0 0 0 0 0 0 0 0 0 0 0 0 -0 0 0 0 0 0 0 0 0 0 0 0 0 0 0 0 0 0 0 0 0 0 0 0 0 0 0 0 0 0 0 0 0 0 0
0 0 0 0 -0 -0 -0 0 -0 0 0 0 0 0 -0 0 -0 0 0 0 -0 -0 0 0 0 0 0 0 0 0 0 0 0 0 0 0 0 0 0 0 0 0 0 0 0 0 0 0 0 0 0 0 0 0
0 0 0 -0 0 0 0 0 0 0 0 0 0 0 0 0 0 0 0 -0 -0 -0 -0 0 0 0 0 0 0 0 0 0 0 0 0 0 0 0 0 0 0 0 0 0 0 0 0 0 0 0 -0 0 0 0
0 0 0 -0 0 0 -0 0 0 0 0 0 0 -0 -0 -0 0 0 0 -0 -0 -0 0 0 0 0 0 0 0 0 0 0 0 0 0 0 0 0 0 0 0 0 0 0 0 0 0 0 0 0 0 0 0 0
0 0 0 -0 0 0 0 0 0 0 0 0 0 0 0 0 0 0 -0 -0 -0 -0 0 0 0 0 0 0 0 0 0 0 0 0 0 0 0 0 0 0 0 0 0 0 0 0 0 0 0 0 0 0 0 0
0 0 -0 -0 0 0 0 0 -0 0 0 0 0 0 0 0 0 0 -0 -0 -0 -0 0 0 0 0 0 0 0 0 0 0 0 0 0 0 0 0 0 -0 -0 0 0 0 0 0 -0 0 0 0 0 0 0 0
0 -0 -0 -0 0 0 0 0 -0 -0 -0 0 0 0 0 0 0 0 -0 -0 -0 0 0 0 0 0 0 0 0 0 0 0 0 0 0 -0 -0 -0 0 0 0 -0 -0 0 -0 -0 -0 -0 0 0 0 0 0 0
0 0 0 0 0 0 -0 -0 0 0 0 -0 -0 -0 -0 0 0 0 0 0 0 0 0 0 0 -0 -0 -0 -0 -0 0 0 0 0 0 -0 -0 -0 0 0 0 -0 -0 -0 0 0 0 0 0 0 0 0 0 0
0 0 0 0 0 -0 -0 -0 -0 -0 -0 -0 -0 -0 -0 0 0 0 0 0 0 0 0 0 0 0 -0 -0 -0 -0 -0 -0 0 0 0 0 0 0 0 -0 0 0 0 0 -0 0 0 0 0 0 0 0 0 0
0 0 0 0 0 0 0 0 0 0 0 0 -0 0 0 0 -0 0 -0 -0 0 0 0 0 0 0 0 0 -0 -0 -0 0 0 0 0 0 0 0 0 0 0 0 0 0 0 0 0 0 0 0 0 0 0 0
0 0 0 0 0 0 0 0 0 0 0 0 0 0 0 -0 0 -0 0 0 0 0 0 0 0 0 0 0 0 0 0 0 0 0 0 0 0 0 0 0 0 0 0 0 0 0 0 0 0 0 0 0 0 0
0 0 0 0 0 0 0 0 0 0 0 0 0 0 0 -0 -0 0 -0 0 0 0 0 0 0 0 0 0 0 0 0 0 0 0 -0 -0 0 0 0 0 0 0 0 0 0 0 0 0 0 0 0 0 0 0
0 0 0 0 0 0 0 0 0 0 0 0 0 0 0 0 0 0 0 0 0 0 0 0 0 0 0 0 0 0 0 0 0 0 0 0 0 0 0 0 0 0 0 0 0 0 0 0 0 0 0 0 0 0
0 0 0 0 0 0 0 0 0 0 0 -0 0 -0 0 0 0 0 0 0 0 0 0 0 0 0 0 0 0 0 0 0 0 0 0 0 0 0 0 0 0 0 0 0 0 0 0 0 0 0 0 0 0 0
0 0 0 0 0 0 0 0 0 -0 0 0 0 0 0 0 0 0 0 0 0 0 0 0 0 0 0 0 0 0 0 0 0 0 0 0 0 0 0 0 0 0 0 0 0 0 0 0 0 0 0 0 0 0
0 0 0 0 0 0 0 0 0 0 -0 0 0 0 0 0 0 0 0 0 0 0 0 0 0 0 0 0 0 0 0 0 0 0 0 0 -0 0 0 0 0 0 0 0 0 0 0 0 0 0 -0 0 0 0
0 0 0 0 0 0 0 0 0 0 -0 -0 -0 -0 -0 0 0 0 0 0 0 0 0 0 0 0 0 0 0 0 0 0 0 0 0 0 0 0 0 0 0 0 0 0 0 0 0 -0 -0 0 0 0 0 0
0 0 0 0 0 0 0 0 0 0 0 0 0 -0 0 0 0 0 0 0 0 0 0 0 0 0 0 0 0 0 0 0 0 0 0 0 0 -0 0 -0 -0 -0 -0 0 0 -0 -0 -0 0 0 0 0 0 0
0 0 0 0 0 0 0 0 0 0 0 0 0 0 0 0 0 0 0 0 0 0 0 0 0 0 0 0 0 0 0 0 0 0 -0 -0 -0 -0 -0 -0 -0 -0 -0 -0 0 0 -0 -0 0 0 0 0 0 0
0 0 0 0 0 0 0 0 0 0 0 -0 0 0 0 0 0 0 0 0 0 0 0 0 0 0 0 0 0 0 0 0 0 0 0 0 -0 -0 -0 -0 -0 -0 -0 0 0 0 -0 -0 0 0 0 0 0 0
Wind_Speed_500mb
24 22 19 20 22 26 25 26 24 25 26 25 24 22 18 22 26 25 22 19 20 22 61 60 49 44 45 30 8 34 12 7 6 6 9 9 10 19 18 31 15 11 10 6 2 4 14 12 10 9 4 30 33 22
26 25 18 18 20 22 25 29 24 23 23 25 26 26 22 22 28 20 26 7 18 32 49 52 60 54 48 38 36 23 19 20 12 4 7 6 9 2 3 8 6 9 13 12 14 12 21 14 9 34 22 19 20 11
27 24 20 18 20 19 19 21 22 23 24 22 21 21 21 22 21 22 27 20 19 24 47 42 45 35 46 54 35 15 5 15 4 11 11 7 5 4 7 5 12 8 11 7 6 9 23 30 19 19 18 16 16 14
31 27 23 21 20 23 24 25 24 23 23 22 21 19 19 20 22 20 26 16 14 19 15 21 21 30 18 44 45 46 47 27 23 21 10 3 3 13 5 6 6 2 10 5 3 7 25 31 25 26 23 20 16 14
28 29 27 24 23 23 26 28 27 27 25 23 21 20 20 19 17 20 25 22 17 24 11 34 63 30 19 10 34 36 32 27 18 9 6 5 7 8 7 4 5 5 5 5 6 20 13 24 28 17 11 9 12 12
24 27 27 29 27 27 27 29 30 28 25 24 22 21 21 20 17 9 7 4 21 14 10 7 21 25 28 23 30 28 30 28 20 8 8 9 22 8 2 3 6 14 29 15 12 27 19 11 13 7 4 3 12 15
26 26 29 31 31 31 28 27 25 24 22 20 19 17 21 19 21 20 10 10 10 16 8 10 12 18 31 32 26 27 32 24 21 12 13 12 22 19 6 8 20 29 20 10 10 13 7 13 13 15 8 7 12 12
30 29 29 32 31 31 28 28 26 28 25 20 21 18 19 20 28 32 32 36 17 16 9 7 9 10 12 29 20 35 23 27 15 17 10 16 13 7 6 10 26 31 23 10 6 15 17 16 12 17 23 11 14 16
31 30 30 30 32 28 27 26 26 26 20 17 17 18 19 14 12 16 21 20 18 14 6 8 7 4 9 11 24 29 29 7 13 9 9 5 8 10 12 20 28 26 21 10 11 15 21 31 36 30 26 19 19 16
31 30 29 29 29 27 26 24 25 14 15 19 13 8 8 9 19 7 8 5 8 13 15 9 16 8 0 7 8 11 23 8 7 12 20 8 8 27 29 23 21 17 44 16 8 15 36 38 38 31 26 21 16 14
33 32 29 28 28 26 22 14 9 10 8 6 8 10 7 9 13 8 7 9 10 8 15 22 43 17 5 3 4 9 8 7 9 8 11 9 8 28 52 45 26 23 19 16 15 24 34 36 36 31 23 18 11 5
33 32 29 27 27 25 18 15 10 12 8 7 8 9 16 10 6 5 6 9 11 9 22 24 33 43 13 7 2 3 5 7 9 11 8 4 8 34 20 32 39 24 25 32 33 43 40 33 28 24 20 13 6 4
32 31 30 27 30 28 20 15 14 15 14 8 10 5 5 7 9 10 11 9 8 8 9 11 13 24 10 8 4 4 5 10 17 6 6 4 23 45 41 37 36 37 41 47 42 37 34 30 23 21 18 11 12 6
27 28 25 26 36 28 20 16 14 13 6 4 4 5 9 9 11 9 8 1 7 15 38 39 16 8 9 5 5 6 8 8 3 8 9 9 48 54 47 45 43 45 51 48 39 31 29 25 18 15 10 9 7 4
22 18 19 23 36 27 20 12 14 11 4 6 7 8 12 16 21 18 18 7 7 16 20 4 10 7 5 5 6 5 7 7 7 6 2 35 60 57 53 52 52 50 50 46 37 33 27 19 16 21 6 11 7 6
11 24 18 24 31 24 18 20 17 14 7 9 12 11 3 7 14 16 9 4 5 7 17 7 4 4 4 6 10 10 6 7 3 6 31 45 46 39 63 59 55 49 42 34 31 21 17 14 16 8 6 10 4 5
13 12 26 28 28 21 17 19 10 10 7 10 15 28 38 25 21 21 17 5 4 5 2 1 5 6 6 7 7 7 4 7 18 25 16 24 45 52 54 56 48 42 37 31 29 20 20 12 7 5 5 6 6 4
6 10 15 37 33 23 21 17 7 8 12 19 19 28 17 8 18 14 7 9 4 7 3 5 6 5 1 3 6 7 29 28 34 29 25 25 23 37 48 44 42 33 29 23 20 17 15 15 14 13 13 11 8 7
16 12 19 22 21 15 14 15 12 9 20 25 32 33 17 28 32 25 10 12 9 5 7 6 3 3 3 9 15 33 34 30 30 32 26 25 28 42 34 32 31 27 22 20 19 17 18 24 23 18 21 15 5 10
14 16 21 23 24 8 5 10 15 11 11 14 16 26 22 20 21 18 10 12 11 8 7 5 4 4 4 21 26 27 31 30 31 28 37 41 38 40 21 21 15 16 20 20 20 17 22 22 21 23 17 14 10 11
14 11 16 20 11 11 8 5 10 13 16 13 20 16 16 21 18 20 23 22 27 9 5 8 9 5 11 25 25 28 33 33 35 16 8 29 27 22 15 18 18 19 22 25 28 19 24 34 33 20 14 10 13 24
4 8 7 9 5 7 10 11 9 7 8 16 25 16 13 12 14 18 19 19 20 20 23 22 21 14 13 16 23 29 28 32 25 8 8 13 11 12 13 12 14 18 20 14 10 5 33 32 24 17 14 14 21 23
6 5 4 8 6 6 11 7 6 4 4 8 9 5 5 3 4 5 4 9 15 7 12 17 26 16 8 2 20 13 8 11 5 6 5 3 8 11 11 12 14 14 12 11 12 7 12 15 22 17 16 20 20 15
5 5 7 8 14 7 8 9 9 7 6 5 4 4 2 1 7 2 3 10 20 20 16 16 10 13 12 12 14 18 22 18 14 14 9 11 14 14 13 16 15 17 21 18 2 6 17 23 15 12 19 18 16 18
9 5 7 8 10 8 7 7 9 8 7 10 7 4 4 3 2 3 4 11 25 19 17 11 16 13 18 26 27 29 32 29 26 29 23 21 23 21 20 18 15 4 2 5 5 7 17 15 17 16 21 21 17 18
6 5 3 7 6 5 8 8 4 5 4 4 4 8 5 4 4 5 6 24 21 18 17 15 4 11 11 12 12 12 5 21 19 21 6 11 4 6 2 6 3 3 3 3 7 15 18 13 10 20 17 16 19 20
6 3 4 6 9 12 10 8 12 5 1 6 5 5 3 6 6 5 13 22 21 26 14 8 8 4 11 7 12 6 9 11 8 3 6 13 9 6 6 12 9 14 18 18 16 15 10 14 16 25 22 16 18 17
6 7 5 9 6 5 5 7 6 13 9 11 4 6 6 6 6 15 15 22 20 21 16 7 8 16 13 11 6 5 10 10 10 9 4 3 9 8 4 7 13 14 19 22 23 22 16 19 26 24 17 12 12 11
7 10 6 6 3 3 11 12 12 16 26 29 11 7 7 10 19 22 23 24 27 23 20 8 8 12 9 11 9 8 7 6 3 8 7 7 9 8 3 7 8 2 3 9 6 3 6 15 12 18 18 18 14 15
6 4 2 12 8 8 11 10 17 27 31 31 31 31 31 37 37 36 36 36 33 30 19 12 7 5 6 6 5 5 6 6 10 9 5 10 10 8 10 5 3 3 5 6 4 2 4 12 19 20 19 12 15 21
10 3 6 7 5 8 12 18 20 21 22 29 35 39 25 9 23 32 49 48 40 49 36 27 14 8 9 10 8 4 6 6 14 16 16 14 12 10 5 4 4 9 12 15 16 12 8 9 11 17 16 19 23 24
2 5 4 7 7 6 8 16 19 22 25 21 16 21 19 8 10 28 47 56 55 46 52 45 32 24 17 20 21 20 19 26 34 28 14 17 21 20 14 13 9 7 5 7 12 15 18 15 8 10 19 22 21 28
11 12 6 5 8 10 12 12 22 24 34 39 38 28 18 9 12 31 35 46 48 52 29 49 41 35 29 28 29 32 34 26 21 17 10 6 3 7 13 11 7 10 12 12 12 12 13 12 11 16 22 23 28 33
Wind_Direction_500mb
305 307 309 313 319 316 311 309 303 294 294 297 295 287 286 288 294 295 276 214 247 270 277 280 288 307 314 335 355 318 339 15 149 215 213 198 201 216 215 260 171 184 166 193 108 264 248 353 45 98 220 33 22 36
291 305 290 300 313 315 307 298 302 306 303 297 294 293 283 279 290 284 280 180 265 272 260 280 277 276 258 260 294 302 299 303 23 305 256 217 238 89 284 234 260 213 192 169 166 198 171 209 190 154 182 184 161 45
279 292 300 290 290 300 313 315 312 302 300 304 300 301 293 278 284 278 272 264 303 303 298 273 275 279 258 249 241 253 66 9 13 338 288 276 249 169 187 200 26 20 88 104 100 134 180 194 205 194 215 152 95 40
268 274 290 294 295 293 298 306 306 310 311 299 292 292 301 292 293 280 274 242 270 285 278 285 289 288 285 245 235 225 243 282 287 311 294 314 332 352 40 52 129 186 60 76 27 112 120 172 118 111 96 76 54 17
276 263 271 287 288 286 293 304 305 296 296 303 290 278 287 283 293 290 278 242 203 280 304 299 304 249 234 258 210 228 237 247 275 289 221 243 284 354 329 26 299 85 195 122 151 111 99 98 113 109 79 17 2 54
290 265 267 269 278 283 290 300 302 307 290 284 289 274 267 269 268 302 305 37 234 243 271 276 314 287 237 246 214 212 223 236 222 250 249 255 262 285 274 230 257 296 55 78 115 113 130 152 133 90 346 224 93 39
289 277 266 268 270 273 283 295 301 302 299 281 288 263 266 266 252 221 240 279 238 194 242 266 254 252 230 203 205 219 224 218 213 223 216 248 280 293 199 215 280 302 344 36 142 145 177 226 170 153 154 69 111 47
284 279 274 264 269 265 273 282 292 298 290 276 273 263 268 275 255 259 251 271 299 225 226 261 263 281 224 197 186 210 203 207 222 232 245 202 252 251 237 191 248 268 282 292 301 217 194 206 172 139 142 135 95 77
281 281 273 268 261 263 269 282 287 296 285 270 259 264 274 257 233 243 238 256 264 234 230 265 279 270 301 250 199 191 203 180 224 192 222 222 193 216 178 218 245 248 260 229 246 261 216 195 139 127 128 105 101 76
279 278 274 263 254 260 262 277 286 275 283 258 246 265 238 235 227 204 213 229 219 214 224 248 276 267 197 300 240 183 197 215 194 210 190 204 245 238 246 252 228 248 230 179 177 97 110 101 113 111 99 100 78 60
268 274 277 264 247 248 255 261 247 248 250 243 224 228 239 240 171 210 205 206 199 236 220 224 234 256 259 125 324 3 298 206 185 229 176 202 198 224 233 236 233 210 203 205 161 130 116 126 120 119 107 98 101 82
263 267 273 256 235 230 233 219 219 229 241 245 249 237 201 186 187 229 212 212 211 239 209 209 212 201 185 212 18 167 295 284 217 176 128 272 200 216 186 211 198 163 144 135 138 124 119 113 114 113 116 115 103 49
261 264 267 242 221 215 220 218 215 234 270 268 204 223 204 173 227 226 210 202 213 270 315 219 179 170 124 132 350 249 247 249 140 121 196 228 128 138 129 125 123 127 125 122 123 124 121 118 123 118 109 83 65 38
263 269 253 212 215 194 203 206 217 214 233 240 246 230 224 194 237 220 298 267 277 319 328 316 119 123 118 108 127 274 239 288 233 197 194 151 134 134 133 134 134 134 133 132 124 125 129 133 115 132 135 97 150 97
266 224 210 215 183 185 193 203 199 209 250 239 243 247 227 281 324 307 280 237 256 344 329 190 125 178 71 133 239 252 260 242 222 197 113 133 143 142 141 143 140 131 134 132 136 139 135 119 140 157 140 12 77 97
225 194 186 159 167 176 186 197 206 218 224 220 234 262 196 315 314 329 314 296 179 7 12 6 44 69 163 193 209 210 224 220 76 40 119 134 137 148 146 141 143 142 142 139 140 143 142 144 158 140 59 13 40 60
184 135 182 174 178 185 194 198 204 218 241 225 236 246 251 285 264 271 303 30 65 76 74 6 216 204 264 195 216 214 312 87 87 82 97 130 134 129 138 137 137 145 149 149 145 157 145 159 172 188 154 283 345 203
140 148 170 199 169 181 190 190 228 241 243 243 252 267 288 279 276 299 233 215 145 117 175 245 297 262 224 228 110 91 86 90 91 100 98 116 138 160 160 143 150 152 147 153 155 162 174 192 212 216 224 226 215 212
143 151 166 176 182 176 182 203 214 245 240 254 253 263 269 284 282 272 195 182 156 70 283 300 260 302 356 290 107 105 103 98 101 107 115 123 109 128 146 158 152 151 156 169 186 207 224 231 218 231 205 212 238 200
121 139 160 180 180 210 240 208 199 245 266 256 268 271 264 258 273 278 249 179 208 157 246 224 114 211 239 81 97 112 109 121 124 92 134 119 133 143 150 125 151 179 196 209 220 235 232 231 224 200 215 208 211 237
112 126 150 163 198 238 266 242 233 263 305 300 280 311 306 281 276 284 255 215 212 206 250 277 299 78 97 88 85 107 120 104 113 115 142 164 172 175 169 163 187 207 231 243 251 248 271 234 189 177 179 214 247 233
136 137 135 186 251 246 255 238 254 249 247 263 290 278 265 283 272 237 258 250 224 220 229 258 275 289 169 136 104 106 105 110 114 122 110 138 134 151 188 205 219 242 258 263 256 326 187 170 161 162 208 235 220 233
123 138 235 218 244 259 267 293 268 295 287 304 329 282 244 290 331 316 250 236 243 7 346 272 254 252 270 115 142 128 162 176 164 19 335 191 235 229 240 237 234 247 262 268 283 178 235 211 184 204 214 220 231 251
234 246 239 204 200 249 252 210 205 232 234 242 250 276 125 191 340 5 6 18 356 332 331 294 331 230 201 214 212 207 210 225 238 243 237 259 272 279 260 267 266 265 274 261 189 95 155 154 159 170 198 224 259 290
265 245 236 252 238 229 235 206 189 220 235 188 215 188 131 124 84 76 14 344 336 337 325 290 214 270 238 217 220 220 221 216 225 232 231 232 239 250 258 253 276 151 315 261 103 212 240 195 216 211 218 236 275 292
258 225 199 306 313 290 320 322 333 288 284 151 133 113 153 167 98 39 354 345 349 7 7 358 349 258 317 357 140 126 160 213 243 237 252 82 142 118 194 231 345 316 232 311 211 221 241 221 227 217 238 278 278 281
271 301 305 302 308 304 284 284 300 292 292 30 115 147 46 69 53 338 341 5 352 353 337 316 235 212 73 22 101 98 154 167 13 125 70 48 11 351 277 265 274 256 243 240 215 196 217 265 238 222 240 252 263 288
274 274 280 304 295 260 283 295 357 14 9 322 70 62 57 43 9 338 13 357 1 6 359 277 238 233 221 220 201 218 203 205 254 252 246 249 301 303 114 271 276 264 265 270 276 273 243 229 214 222 233 233 254 245
272 291 304 296 190 266 30 31 28 37 46 52 68 70 65 44 32 25 13 8 12 12 11 28 182 200 182 184 185 213 251 264 172 51 45 332 292 206 206 268 287 279 23 9 356 330 196 196 186 193 212 229 271 192
292 274 345 41 37 42 17 66 67 66 73 78 98 106 82 59 48 39 31 24 19 24 30 49 82 176 207 208 228 205 229 257 221 211 115 39 54 39 67 119 185 236 252 253 286 5 328 241 205 206 221 252 202 188
288 328 82 63 75 119 129 137 120 112 106 100 96 83 71 89 32 26 32 27 29 33 50 48 68 97 153 176 190 183 134 127 136 141 124 92 84 43 80 23 300 255 224 226 235 254 232 233 262 249 248 193 199 198
19 312 157 124 130 140 93 128 126 113 117 105 110 100 71 44 43 28 27 22 26 28 33 42 52 66 107 111 110 105 119 131 135 123 104 113 109 99 90 39 1 340 291 266 247 210 211 238 246 219 187 188 190 178
158 154 107 89 147 178 174 139 106 93 84 78 66 63 62 70 68 32 24 21 24 24 27 32 50 66 87 101 106 101 97 97 104 74 71 65 28 333 317 308 282 280 303 261 235 211 211 224 206 195 187 183 174 169
Wind_Speed_850mb
24 22 19 20 22 26 25 26 24 25 26 25 24 22 18 22 26 25 22 19 20 22 61 60 49 44 45 30 8 34 12 7 6 6 9 9 10 19 18 31 15 11 10 6 2 4 14 12 10 9 4 30 33 22
26 25 18 18 20 22 25 29 24 23 23 25 26 26 22 22 28 20 26 7 18 32 49 52 60 54 48 38 36 23 19 20 12 4 7 6 9 2 3 8 6 9 13 12 14 12 21 14 9 34 22 19 20 11
27 24 20 18 20 19 19 21 22 23 24 22 21 21 21 22 21 22 27 20 19 24 47 42 45 35 46 54 35 15 5 15 4 11 11 7 5 4 7 5 12 8 11 7 6 9 23 30 19 19 18 16 16 14
31 27 23 21 20 23 24 25 24 23 23 22 21 19 19 20 22 20 26 16 14 19 15 21 21 30 18 44 45 46 47 27 23 21 10 3 3 13 5 6 6 2 10 5 3 7 25 31 25 26 23 20 16 14
28 29 27 24 23 23 26 28 27 27 25 23 21 20 20 19 17 20 25 22 17 24 11 34 63 30 19 10 34 36 32 27 18 9 6 5 7 8 7 4 5 5 5 5 6 20 13 24 28 17 11 9 12 12
24 27 27 29 27 27 27 29 30 28 25 24 22 21 21 20 17 9 7 4 21 14 10 7 21 25 28 23 30 28 30 28 20 8 8 9 22 8 2 3 6 14 29 15 12 27 19 11 13 7 4 3 12 15
26 26 29 31 31 31 28 27 25 24 22 20 19 17 21 19 21 20 10 10 10 16 8 10 12 18 31 32 26 27 32 24 21 12 13 12 22 19 6 8 20 29 20 10 10 13 7 13 13 15 8 7 12 12
30 29 29 32 31 31 28 28 26 28 25 20 21 18 19 20 28 32 32 36 17 16 9 7 9 10 12 29 20 35 23 27 15 17 10 16 13 7 6 10 26 31 23 10 6 15 17 16 12 17 23 11 14 16
31 30 30 30 32 28 27 26 26 26 20 17 17 18 19 14 12 16 21 20 18 14 6 8 7 4 9 11 24 29 29 7 13 9 9 5 8 10 12 20 28 26 21 10 11 15 21 31 36 30 26 19 19 16
31 30 29 29 29 27 26 24 25 14 15 19 13 8 8 9 19 7 8 5 8 13 15 9 16 8 0 7 8 11 23 8 7 12 20 8 8 27 29 23 21 17 44 16 8 15 36 38 38 31 26 21 16 14
33 32 29 28 28 26 22 14 9 10 8 6 8 10 7 9 13 8 7 9 10 8 15 22 43 17 5 3 4 9 8 7 9 8 11 9 8 28 52 45 26 23 19 16 15 24 34 36 36 31 23 18 11 5
33 32 29 27 27 25 18 15 10 12 8 7 8 9 16 10 6 5 6 9 11 9 22 24 33 43 13 7 2 3 5 7 9 11 8 4 8 34 20 32 39 24 25 32 33 43 40 33 28 24 20 13 6 4
32 31 30 27 30 28 20 15 14 15 14 8 10 5 5 7 9 10 11 9 8 8 9 11 13 24 10 8 4 4 5 10 17 6 6 4 23 45 41 37 36 37 41 47 42 37 34 30 23 21 18 11 12 6
27 28 25 26 36 28 20 16 14 13 6 4 4 5 9 9 11 9 8 1 7 15 38 39 16 8 9 5 5 6 8 8 3 8 9 9 48 54 47 45 43 45 51 48 39 31 29 25 18 15 10 9 7 4
22 18 19 23 36 27 20 12 14 11 4 6 7 8 12 16 21 18 18 7 7 16 20 4 10 7 5 5 6 5 7 7 7 6 2 35 60 57 53 52 52 50 50 46 37 33 27 19 16 21 6 11 7 6
11 24 18 24 31 24 18 20 17 14 7 9 12 11 3 7 14 16 9 4 5 7 17 7 4 4 4 6 10 10 6 7 3 6 31 45 46 39 63 59 55 49 42 34 31 21 17 14 16 8 6 10 4 5
13 12 26 28 28 21 17 19 10 10 7 10 15 28 38 25 21 21 17 5 4 5 2 1 5 6 6 7 7 7 4 7 18 25 16 24 45 52 54 56 48 42 37 31 29 20 20 12 7 5 5 6 6 4
6 10 15 37 33 23 21 17 7 8 12 19 19 28 17 8 18 14 7 9 4 7 3 5 6 5 1 3 6 7 29 28 34 29 25 25 23 37 48 44 42 33 29 23 20 17 15 15 14 13 13 11 8 7
16 12 19 22 21 15 14 15 12 9 20 25 32 33 17 28 32 25 10 12 9 5 7 6 3 3 3 9 15 33 34 30 30 32 26 25 28 42 34 32 31 27 22 20 19 17 18 24 23 18 21 15 5 10
14 16 21 23 24 8 5 10 15 11 11 14 16 26 22 20 21 18 10 12 11 8 7 5 4 4 4 21 26 27 31 30 31 28 37 41 38 40 21 21 15 16 20 20 20 17 22 22 21 23 17 14 10 11
14 11 16 20 11 11 8 5 10 13 16 13 20 16 16 21 18 20 23 22 27 9 5 8 9 5 11 25 25 28 33 33 35 16 8 29 27 22 15 18 18 19 22 25 28 19 24 34 33 20 14 10 13 24
4 8 7 9 5 7 10 11 9 7 8 16 25 16 13 12 14 18 19 19 20 20 23 22 21 14 13 16 23 29 28 32 25 8 8 13 11 12 13 12 14 18 20 14 10 5 33 32 24 17 14 14 21 23
6 5 4 8 6 6 11 7 6 4 4 8 9 5 5 3 4 5 4 9 15 7 12 17 26 16 8 2 20 13 8 11 5 6 5 3 8 11 11 12 14 14 12 11 12 7 12 15 22 17 16 20 20 15
5 5 7 8 14 7 8 9 9 7 6 5 4 4 2 1 7 2 3 10 20 20 16 16 10 13 12 12 14 18 22 18 14 14 9 11 14 14 13 16 15 17 21 18 2 6 17 23 15 12 19 18 16 18
9 5 7 8 10 8 7 7 9 8 7 10 7 4 4 3 2 3 4 11 25 19 17 11 16 13 18 26 27 29 32 29 26 29 23 21 23 21 20 18 15 4 2 5 5 7 17 15 17 16 21 21 17 18
6 5 3 7 6 5 8 8 4 5 4 4 4 8 5 4 4 5 6 24 21 18 17 15 4 11 11 12 12 12 5 21 19 21 6 11 4 6 2 6 3 3 3 3 7 15 18 13 10 20 17 16 19 20
6 3 4 6 9 12 10 8 12 5 1 6 5 5 3 6 6 5 13 22 21 26 14 8 8 4 11 7 12 6 9 11 8 3 6 13 9 6 6 12 9 14 18 18 16 15 10 14 16 25 22 16 18 17
6 7 5 9 6 5 5 7 6 13 9 11 4 6 6 6 6 15 15 22 20 21 16 7 8 16 13 11 6 5 10 10 10 9 4 3 9 8 4 7 13 14 19 22 23 22 16 19 26 24 17 12 12 11
7 10 6 6 3 3 11 12 12 16 26 29 11 7 7 10 19 22 23 24 27 23 20 8 8 12 9 11 9 8 7 6 3 8 7 7 9 8 3 7 8 2 3 9 6 3 6 15 12 18 18 18 14 15
6 4 2 12 8 8 11 10 17 27 31 31 31 31 31 37 37 36 36 36 33 30 19 12 7 5 6 6 5 5 6 6 10 9 5 10 10 8 10 5 3 3 5 6 4 2 4 12 19 20 19 12 15 21
10 3 6 7 5 8 12 18 20 21 22 29 35 39 25 9 23 32 49 48 40 49 36 27 14 8 9 10 8 4 6 6 14 16 16 14 12 10 5 4 4 9 12 15 16 12 8 9 11 17 16 19 23 24
2 5 4 7 7 6 8 16 19 22 25 21 16 21 19 8 10 28 47 56 55 46 52 45 32 24 17 20 21 20 19 26 34 28 14 17 21 20 14 13 9 7 5 7 12 15 18 15 8 10 19 22 21 28
11 12 6 5 8 10 12 12 22 24 34 39 38 28 18 9 12 31 35 46 48 52 29 49 41 35 29 28 29 32 34 26 21 17 10 6 3 7 13 11 7 10 12 12 12 12 13 12 11 16 22 23 28 33
Wind_Direction_850mb
305 307 309 313 319 316 311 309 303 294 294 297 295 287 286 288 294 295 276 214 247 270 277 280 288 307 314 335 355 318 339 15 149 215 213 198 201 216 215 260 171 184 166 193 108 264 248 353 45 98 220 33 22 36
291 305 290 300 313 315 307 298 302 306 303 297 294 293 283 279 290 284 280 180 265 272 260 280 277 276 258 260 294 302 299 303 23 305 256 217 238 89 284 234 260 213 192 169 166 198 171 209 190 154 182 184 161 45
279 292 300 290 290 300 313 315 312 302 300 304 300 301 293 278 284 278 272 264 303 303 298 273 275 279 258 249 241 253 66 9 13 338 288 276 249 169 187 200 26 20 88 104 100 134 180 194 205 194 215 152 95 40
268 274 290 294 295 293 298 306 306 310 311 299 292 292 301 292 293 280 274 242 270 285 278 285 289 288 285 245 235 225 243 282 287 311 294 314 332 352 40 52 129 186 60 76 27 112 120 172 118 111 96 76 54 17
276 263 271 287 288 286 293 304 305 296 296 303 290 278 287 283 293 290 278 242 203 280 304 299 304 249 234 258 210 228 237 247 275 289 221 243 284 354 329 26 299 85 195 122 151 111 99 98 113 109 79 17 2 54
290 265 267 269 278 283 290 300 302 307 290 284 289 274 267 269 268 302 305 37 234 243 271 276 314 287 237 246 214 212 223 236 222 250 249 255 262 285 274 230 257 296 55 78 115 113 130 152 133 90 346 224 93 39
289 277 266 268 270 273 283 295 301 302 299 281 288 263 266 266 252 221 240 279 238 194 242 266 254 252 230 203 205 219 224 218 213 223 216 248 280 293 199 215 280 302 344 36 142 145 177 226 170 153 154 69 111 47
284 279 274 264 269 265 273 282 292 298 290 276 273 263 268 275 255 259 251 271 299 225 226 261 263 281 224 197 186 210 203 207 222 232 245 202 252 251 237 191 248 268 282 292 301 217 194 206 172 139 142 135 95 77
281 281 273 268 261 263 269 282 287 296 285 270 259 264 274 257 233 243 238 256 264 234 230 265 279 270 301 250 199 191 203 180 224 192 222 222 193 216 178 218 245 248 260 229 246 261 216 195 139 127 128 105 101 76
279 278 274 263 254 260 262 277 286 275 283 258 246 265 238 235 227 204 213 229 219 214 224 248 276 267 197 300 240 183 197 215 194 210 190 204 245 238 246 252 228 248 230 179 177 97 110 101 113 111 99 100 78 60
268 274 277 264 247 248 255 261 247 248 250 243 224 228 239 240 171 210 205 206 199 236 220 224 234 256 259 125 324 3 298 206 185 229 176 202 198 224 233 236 233 210 203 205 161 130 116 126 120 119 107 98 101 82
263 267 273 256 235 230 233 219 219 229 241 245 249 237 201 186 187 229 212 212 211 239 209 209 212 201 185 212 18 167 295 284 217 176 128 272 200 216 186 211 198 163 144 135 138 124 119 113 114 113 116 115 103 49
261 264 267 242 221 215 220 218 215 234 270 268 204 223 204 173 227 226 210 202 213 270 315 219 179 170 124 132 350 249 247 249 140 121 196 228 128 138 129 125 123 127 125 122 123 124 121 118 123 118 109 83 65 38
263 269 253 212 215 194 203 206 217 214 233 240 246 230 224 194 237 220 298 267 277 319 328 316 119 123 118 108 127 274 239 288 233 197 194 151 134 134 133 134 134 134 133 132 124 125 129 133 115 132 135 97 150 97
266 224 210 215 183 185 193 203 199 209 250 239 243 247 227 281 324 307 280 237 256 344 329 190 125 178 71 133 239 252 260 242 222 197 113 133 143 142 141 143 140 131 134 132 136 139 135 119 140 157 140 12 77 97
225 194 186 159 167 176 186 197 206 218 224 220 234 262 196 315 314 329 314 296 179 7 12 6 44 69 163 193 209 210 224 220 76 40 119 134 137 148 146 141 143 142 142 139 140 143 142 144 158 140 59 13 40 60
184 135 182 174 178 185 194 198 204 218 241 225 236 246 251 285 264 271 303 30 65 76 74 6 216 204 264 195 216 214 312 87 87 82 97 130 134 129 138 137 137 145 149 149 145 157 145 159 172 188 154 283 345 203
140 148 170 199 169 181 190 190 228 241 243 243 252 267 288 279 276 299 233 215 145 117 175 245 297 262 224 228 110 91 86 90 91 100 98 116 138 160 160 143 150 152 147 153 155 162 174 192 212 216 224 226 215 212
143 151 166 176 182 176 182 203 214 245 240 254 253 263 269 284 282 272 195 182 156 70 283 300 260 302 356 290 107 105 103 98 101 107 115 123 109 128 146 158 152 151 156 169 186 207 224 231 218 231 205 212 238 200
121 139 160 180 180 210 240 208 199 245 266 256 268 271 264 258 273 278 249 179 208 157 246 224 114 211 239 81 97 112 109 121 124 92 134 119 133 143 150 125 151 179 196 209 220 235 232 231 224 200 215 208 211 237
112 126 150 163 198 238 266 242 233 263 305 300 280 311 306 281 276 284 255 215 212 206 250 277 299 78 97 88 85 107 120 104 113 115 142 164 172 175 169 163 187 207 231 243 251 248 271 234 189 177 179 214 247 233
136 137 135 186 251 246 255 238 254 249 247 263 290 278 265 283 272 237 258 250 224 220 229 258 275 289 169 136 104 106 105 110 114 122 110 138 134 151 188 205 219 242 258 263 256 326 187 170 161 162 208 235 220 233
123 138 235 218 244 259 267 293 268 295 287 304 329 282 244 290 331 316 250 236 243 7 346 272 254 252 270 115 142 128 162 176 164 19 335 191 235 229 240 237 234 247 262 268 283 178 235 211 184 204 214 220 231 251
234 246 239 204 200 249 252 210 205 232 234 242 250 276 125 191 340 5 6 18 356 332 331 294 331 230 201 214 212 207 210 225 238 243 237 259 272 279 260 267 266 265 274 261 189 95 155 154 159 170 198 224 259 290
265 245 236 252 238 229 235 206 189 220 235 188 215 188 131 124 84 76 14 344 336 337 325 290 214 270 238 217 220 220 221 216 225 232 231 232 239 250 258 253 276 151 315 261 103 212 240 195 216 211 218 236 275 292
258 225 199 306 313 290 320 322 333 288 284 151 133 113 153 167 98 39 354 345 349 7 7 358 349 258 317 357 140 126 160 213 243 237 252 82 142 118 194 231 345 316 232 311 211 221 241 221 227 217 238 278 278 281
271 301 305 302 308 304 284 284 300 292 292 30 115 147 46 69 53 338 341 5 352 353 337 316 235 212 73 22 101 98 154 167 13 125 70 48 11 351 277 265 274 256 243 240 215 196 217 265 238 222 240 252 263 288
274 274 280 304 295 260 283 295 357 14 9 322 70 62 57 43 9 338 13 357 1 6 359 277 238 233 221 220 201 218 203 205 254 252 246 249 301 303 114 271 276 264 265 270 276 273 243 229 214 222 233 233 254 245
272 291 304 296 190 266 30 31 28 37 46 52 68 70 65 44 32 25 13 8 12 12 11 28 182 200 182 184 185 213 251 264 172 51 45 332 292 206 206 268 287 279 23 9 356 330 196 196 186 193 212 229 271 192
292 274 345 41 37 42 17 66 67 66 73 78 98 106 82 59 48 39 31 24 19 24 30 49 82 176 207 208 228 205 229 257 221 211 115 39 54 39 67 119 185 236 252 253 286 5 328 241 205 206 221 252 202 188
288 328 82 63 75 119 129 137 120 112 106 100 96 83 71 89 32 26 32 27 29 33 50 48 68 97 153 176 190 183 134 127 136 141 124 92 84 43 80 23 300 255 224 226 235 254 232 233 262 249 248 193 199 198
19 312 157 124 130 140 93 128 126 113 117 105 110 100 71 44 43 28 27 22 26 28 33 42 52 66 107 111 110 105 119 131 135 123 104 113 109 99 90 39 1 340 291 266 247 210 211 238 246 219 187 188 190 178
158 154 107 89 147 178 174 139 106 93 84 78 66 63 62 70 68 32 24 21 24 24 27 32 50 66 87 101 106 101 97 97 104 74 71 65 28 333 317 308 282 280 303 261 235 211 211 224 206 195 187 183 174 169